| time (UTC) | temp F | wind direction | speed MPH | gust MPH | rain 1hr in | rain 24hr in | rain mn in | humidity % | barometer mb |
| 20260902110537 | 74 | 184 | 4.0 | 15.0 | 0.00 | 0.00 | 0.00 | 14 | 1006.4 |
| 20260902110047 | 74 | 212 | 7.0 | 15.0 | 0.00 | 0.00 | 0.00 | 14 | 1006.3 |
| 20260902105536 | 73 | 183 | 4.0 | 8.0 | 0.00 | 0.00 | 0.00 | 14 | 1006.4 |
| 20260902105036 | 73 | 184 | 2.0 | 8.0 | 0.00 | 0.00 | 0.00 | 15 | 1006.4 |
| 20260902104553 | 73 | 192 | 2.0 | 8.0 | 0.00 | 0.00 | 0.00 | 14 | 1006.4 |
| 20260902104036 | 73 | 204 | 3.0 | 8.0 | 0.00 | 0.00 | 0.00 | 14 | 1006.4 |
| 20260902103535 | 74 | 178 | 2.0 | 8.0 | 0.00 | 0.00 | 0.00 | 14 | 1006.3 |
| 20260902103050 | 74 | 204 | 4.0 | 9.0 | 0.00 | 0.00 | 0.00 | 14 | 1006.4 |
| 20260902102534 | 74 | 191 | 4.0 | 9.0 | 0.00 | 0.00 | 0.00 | 15 | 1006.5 |
| 20260902102034 | 74 | 170 | 3.0 | 9.0 | 0.00 | 0.00 | 0.00 | 15 | 1006.5 |
| 20260902101536 | 74 | 205 | 3.0 | 9.0 | 0.00 | 0.00 | 0.00 | 15 | 1006.5 |
| 20260902101035 | 73 | 207 | 2.0 | 8.0 | 0.00 | 0.00 | 0.00 | 15 | 1006.6 |
| 20260902100533 | 73 | 215 | 3.0 | 8.0 | 0.00 | 0.00 | 0.00 | 15 | 1006.5 |
| 20260902100036 | 73 | 231 | 3.0 | 10.0 | 0.00 | 0.00 | 0.00 | 15 | 1006.5 |
| 20260902095532 | 73 | 224 | 4.0 | 10.0 | 0.00 | 0.00 | 0.00 | 15 | 1006.5 |
| 20260902095031 | 73 | 218 | 4.0 | 9.0 | 0.00 | 0.00 | 0.00 | 15 | 1006.6 |
| 20260902094530 | 74 | 207 | 4.0 | 8.0 | 0.00 | 0.00 | 0.00 | 15 | 1006.5 |
| 20260902094030 | 74 | 204 | 4.0 | 9.0 | 0.00 | 0.00 | 0.00 | 15 | 1006.4 |
| 20260902093529 | 74 | 185 | 5.0 | 9.0 | 0.00 | 0.00 | 0.00 | 15 | 1006.5 |
| 20260902093029 | 74 | 194 | 4.0 | 8.0 | 0.00 | 0.00 | 0.00 | 15 | 1006.6 |
| 20260902092530 | 74 | 205 | 3.0 | 7.0 | 0.00 | 0.00 | 0.00 | 15 | 1006.7 |
| 20260902092027 | 74 | 211 | 3.0 | 9.0 | 0.00 | 0.00 | 0.00 | 15 | 1006.7 |
| 20260902091526 | 74 | 207 | 3.0 | 10.0 | 0.00 | 0.00 | 0.00 | 15 | 1006.7 |
| 20260902091025 | 75 | 197 | 4.0 | 10.0 | 0.00 | 0.00 | 0.00 | 15 | 1006.7 |
| 20260902090525 | 74 | 191 | 5.0 | 8.0 | 0.00 | 0.00 | 0.00 | 15 | 1006.7 |
| 20260902090029 | 74 | 205 | 3.0 | 8.0 | 0.00 | 0.00 | 0.00 | 15 | 1006.7 |
| 20260902085526 | 74 | 210 | 3.0 | 9.0 | 0.00 | 0.00 | 0.00 | 15 | 1006.7 |
| 20260902085023 | 75 | 201 | 2.0 | 9.0 | 0.00 | 0.00 | 0.00 | 14 | 1006.7 |
| 20260902084529 | 75 | 188 | 5.0 | 9.0 | 0.00 | 0.00 | 0.00 | 14 | 1006.8 |
| 20260902084022 | 75 | 196 | 5.0 | 11.0 | 0.00 | 0.00 | 0.00 | 15 | 1006.7 |
| 20260902083525 | 75 | 174 | 5.0 | 11.0 | 0.00 | 0.00 | 0.00 | 14 | 1006.6 |
| 20260902083020 | 75 | 196 | 4.0 | 10.0 | 0.00 | 0.00 | 0.00 | 15 | 1006.5 |
| 20260902082520 | 75 | 174 | 4.0 | 10.0 | 0.00 | 0.00 | 0.00 | 15 | 1006.6 |
| 20260902082019 | 75 | 175 | 4.0 | 15.0 | 0.00 | 0.00 | 0.00 | 15 | 1006.6 |
| 20260902081520 | 76 | 169 | 7.0 | 15.0 | 0.00 | 0.00 | 0.00 | 14 | 1006.7 |
| 20260902081018 | 76 | 185 | 5.0 | 11.0 | 0.00 | 0.00 | 0.00 | 14 | 1006.7 |
| 20260902080517 | 76 | 178 | 6.0 | 11.0 | 0.00 | 0.00 | 0.00 | 14 | 1006.7 |
| 20260902080021 | 76 | 150 | 5.0 | 11.0 | 0.00 | 0.00 | 0.00 | 15 | 1006.7 |
| 20260902075516 | 76 | 159 | 6.0 | 12.0 | 0.00 | 0.00 | 0.00 | 15 | 1006.6 |
| 20260902075015 | 76 | 167 | 4.0 | 11.0 | 0.00 | 0.00 | 0.00 | 14 | 1006.6 |
| 20260902074513 | 76 | 173 | 3.0 | 8.0 | 0.00 | 0.00 | 0.00 | 14 | 1006.5 |
| 20260902074012 | 77 | 192 | 2.0 | 8.0 | 0.00 | 0.00 | 0.00 | 14 | 1006.6 |
| 20260902073510 | 77 | 188 | 2.0 | 6.0 | 0.00 | 0.00 | 0.00 | 14 | 1006.6 |
| 20260902073010 | 77 | 190 | 2.0 | 8.0 | 0.00 | 0.00 | 0.00 | 13 | 1006.5 |
| 20260902072510 | 77 | 183 | 3.0 | 8.0 | 0.00 | 0.00 | 0.00 | 13 | 1006.5 |
| 20260902072008 | 78 | 242 | 0.0 | 6.0 | 0.00 | 0.00 | 0.00 | 13 | 1006.4 |
| 20260902071507 | 78 | 227 | 3.0 | 7.0 | 0.00 | 0.00 | 0.00 | 13 | 1006.4 |
| 20260902071006 | 78 | 202 | 2.0 | 8.0 | 0.00 | 0.00 | 0.00 | 13 | 1006.3 |
| 20260902070504 | 78 | 208 | 2.0 | 13.0 | 0.00 | 0.00 | 0.00 | 12 | 1006.2 |
| 20260902070007 | 78 | 215 | 3.0 | 13.0 | 0.00 | 0.00 | 0.00 | 12 | 1006.1 |
| 20260902065502 | 78 | 224 | 4.0 | 13.0 | 0.00 | 0.00 | 0.00 | 12 | 1006.1 |
| 20260902065002 | 79 | 225 | 4.0 | 13.0 | 0.00 | 0.00 | 0.00 | 11 | 1006.2 |
| 20260902064508 | 79 | 213 | 5.0 | 12.0 | 0.00 | 0.00 | 0.00 | 11 | 1006.2 |
| 20260902064001 | 79 | 245 | 5.0 | 13.0 | 0.00 | 0.00 | 0.00 | 11 | 1006.2 |
| 20260902063501 | 79 | 231 | 4.0 | 12.0 | 0.00 | 0.00 | 0.00 | 11 | 1006.2 |
| 20260902063005 | 79 | 236 | 6.0 | 12.0 | 0.00 | 0.00 | 0.00 | 11 | 1006.3 |
| 20260902062502 | 79 | 246 | 5.0 | 14.0 | 0.00 | 0.00 | 0.00 | 11 | 1006.1 |
| 20260902062001 | 79 | 270 | 4.0 | 14.0 | 0.00 | 0.00 | 0.00 | 11 | 1006.0 |
| 20260902061503 | 79 | 226 | 6.0 | 14.0 | 0.00 | 0.00 | 0.00 | 11 | 1006.0 |
| 20260902061002 | 79 | 248 | 3.0 | 10.0 | 0.00 | 0.00 | 0.00 | 11 | 1006.0 |
| 20260902060601 | 80 | 237 | 5.0 | 12.0 | 0.00 | 0.00 | 0.00 | 11 | 1006.0 |
| 20260902060109 | 80 | 219 | 4.0 | 12.0 | 0.00 | 0.00 | 0.00 | 11 | 1006.0 |
| 20260902055600 | 80 | 229 | 5.0 | 11.0 | 0.00 | 0.00 | 0.00 | 11 | 1005.9 |
| 20260902055100 | 80 | 235 | 4.0 | 9.0 | 0.00 | 0.00 | 0.00 | 11 | 1006.0 |
| 20260902054600 | 80 | 233 | 3.0 | 12.0 | 0.00 | 0.00 | 0.00 | 11 | 1006.0 |
| 20260902054059 | 80 | 249 | 4.0 | 12.0 | 0.00 | 0.00 | 0.00 | 11 | 1006.0 |
| 20260902053559 | 80 | 248 | 4.0 | 12.0 | 0.00 | 0.00 | 0.00 | 12 | 1006.1 |
| 20260902053105 | 80 | 242 | 6.0 | 12.0 | 0.00 | 0.00 | 0.00 | 12 | 1006.0 |
| 20260902052603 | 80 | 247 | 5.0 | 11.0 | 0.00 | 0.00 | 0.00 | 12 | 1006.0 |
| 20260902052100 | 80 | 233 | 3.0 | 10.0 | 0.00 | 0.00 | 0.00 | 12 | 1006.0 |
| 20260902051613 | 80 | 234 | 4.0 | 10.0 | 0.00 | 0.00 | 0.00 | 12 | 1006.0 |
| 20260902051059 | 80 | 225 | 5.0 | 9.0 | 0.00 | 0.00 | 0.00 | 12 | 1006.1 |
| 20260902050600 | 80 | 245 | 3.0 | 10.0 | 0.00 | 0.00 | 0.00 | 12 | 1005.9 |
| 20260902050058 | 81 | 228 | 3.0 | 13.0 | 0.00 | 0.00 | 0.00 | 12 | 1006.0 |
| 20260902045559 | 81 | 240 | 4.0 | 13.0 | 0.00 | 0.00 | 0.00 | 12 | 1005.9 |
| 20260902045057 | 81 | 238 | 2.0 | 10.0 | 0.00 | 0.00 | 0.00 | 12 | 1005.9 |
| 20260902044619 | 81 | 242 | 4.0 | 10.0 | 0.00 | 0.00 | 0.00 | 12 | 1005.9 |
| 20260902044056 | 81 | 232 | 3.0 | 10.0 | 0.00 | 0.00 | 0.00 | 12 | 1005.9 |
| 20260902043557 | 81 | 261 | 2.0 | 10.0 | 0.00 | 0.00 | 0.00 | 12 | 1005.9 |
| 20260902043057 | 81 | 242 | 4.0 | 10.0 | 0.00 | 0.00 | 0.00 | 12 | 1005.7 |
| 20260902042557 | 81 | 220 | 3.0 | 10.0 | 0.00 | 0.00 | 0.00 | 12 | 1005.7 |
| 20260902042057 | 82 | 227 | 4.0 | 11.0 | 0.00 | 0.00 | 0.00 | 12 | 1005.6 |
| 20260902041557 | 82 | 240 | 4.0 | 15.0 | 0.00 | 0.00 | 0.00 | 12 | 1005.5 |
| 20260902041057 | 82 | 240 | 6.0 | 15.0 | 0.00 | 0.00 | 0.00 | 12 | 1005.4 |
| 20260902040556 | 82 | 229 | 4.0 | 10.0 | 0.00 | 0.00 | 0.00 | 12 | 1005.4 |
| 20260902040057 | 82 | 259 | 4.0 | 10.0 | 0.00 | 0.00 | 0.00 | 13 | 1005.4 |
| 20260902035556 | 82 | 236 | 2.0 | 7.0 | 0.00 | 0.00 | 0.00 | 13 | 1005.4 |
| 20260902035055 | 82 | 266 | 3.0 | 7.0 | 0.00 | 0.00 | 0.00 | 13 | 1005.3 |
| 20260902034600 | 83 | 285 | 2.0 | 8.0 | 0.00 | 0.00 | 0.00 | 13 | 1005.2 |
| 20260902034054 | 83 | 213 | 3.0 | 8.0 | 0.00 | 0.00 | 0.00 | 13 | 1005.1 |
| 20260902033555 | 83 | 234 | 2.0 | 9.0 | 0.00 | 0.00 | 0.00 | 13 | 1005.1 |
| 20260902033055 | 83 | 209 | 4.0 | 9.0 | 0.00 | 0.00 | 0.00 | 13 | 1005.0 |
| 20260902032557 | 83 | 227 | 2.0 | 8.0 | 0.00 | 0.00 | 0.00 | 13 | 1004.9 |
| 20260902032055 | 83 | 236 | 3.0 | 10.0 | 0.00 | 0.00 | 0.00 | 13 | 1004.9 |
| 20260902031600 | 83 | 239 | 4.0 | 10.0 | 0.00 | 0.00 | 0.00 | 13 | 1004.9 |
| 20260902031055 | 84 | 242 | 3.0 | 12.0 | 0.00 | 0.00 | 0.00 | 13 | 1004.8 |
| 20260902030555 | 83 | 202 | 5.0 | 10.0 | 0.00 | 0.00 | 0.00 | 13 | 1004.7 |
| 20260902030058 | 84 | 248 | 4.0 | 10.0 | 0.00 | 0.00 | 0.00 | 14 | 1004.6 |
| 20260902025554 | 84 | 233 | 3.0 | 14.0 | 0.00 | 0.00 | 0.00 | 14 | 1004.6 |
| 20260902025054 | 84 | 242 | 6.0 | 14.0 | 0.00 | 0.00 | 0.00 | 14 | 1004.6 |
| 20260902024600 | 84 | 240 | 4.0 | 10.0 | 0.00 | 0.00 | 0.00 | 14 | 1004.6 |
| 20260902024053 | 84 | 243 | 4.0 | 10.0 | 0.00 | 0.00 | 0.00 | 14 | 1004.6 |
| 20260902023553 | 84 | 242 | 4.0 | 10.0 | 0.00 | 0.00 | 0.00 | 14 | 1004.7 |
| 20260902023053 | 84 | 248 | 5.0 | 12.0 | 0.00 | 0.00 | 0.00 | 14 | 1004.6 |
| 20260902022553 | 84 | 223 | 5.0 | 12.0 | 0.00 | 0.00 | 0.00 | 14 | 1004.6 |
| 20260902022055 | 84 | 211 | 5.0 | 13.0 | 0.00 | 0.00 | 0.00 | 15 | 1004.5 |
| 20260902021553 | 84 | 215 | 4.0 | 10.0 | 0.00 | 0.00 | 0.00 | 14 | 1004.5 |
| 20260902021053 | 85 | 202 | 5.0 | 10.0 | 0.00 | 0.00 | 0.00 | 14 | 1004.5 |
| 20260902020552 | 85 | 220 | 5.0 | 11.0 | 0.00 | 0.00 | 0.00 | 14 | 1004.5 |
| 20260902020053 | 85 | 251 | 4.0 | 12.0 | 0.00 | 0.00 | 0.00 | 14 | 1004.6 |
| 20260902015550 | 85 | 195 | 4.0 | 12.0 | 0.00 | 0.00 | 0.00 | 14 | 1004.6 |
| 20260902015049 | 85 | 233 | 3.0 | 10.0 | 0.00 | 0.00 | 0.00 | 14 | 1004.8 |
| 20260902014649 | 85 | 234 | 5.0 | 12.0 | 0.00 | 0.00 | 0.00 | 13 | 1004.8 |
| 20260902014048 | 85 | 229 | 5.0 | 11.0 | 0.00 | 0.00 | 0.00 | 13 | 1004.8 |
| 20260902013548 | 85 | 201 | 5.0 | 12.0 | 0.00 | 0.00 | 0.00 | 13 | 1004.9 |
| 20260902013053 | 85 | 265 | 4.0 | 12.0 | 0.00 | 0.00 | 0.00 | 13 | 1004.8 |
| 20260902012547 | 86 | 196 | 4.0 | 10.0 | 0.00 | 0.00 | 0.00 | 13 | 1004.8 |
| 20260902012047 | 86 | 212 | 3.0 | 12.0 | 0.00 | 0.00 | 0.00 | 13 | 1004.9 |
| 20260902011546 | 87 | 193 | 4.0 | 12.0 | 0.00 | 0.00 | 0.00 | 12 | 1004.9 |
| 20260902011048 | 87 | 242 | 6.0 | 14.0 | 0.00 | 0.00 | 0.00 | 12 | 1005.0 |
| 20260902010546 | 87 | 202 | 6.0 | 14.0 | 0.00 | 0.00 | 0.00 | 12 | 1005.0 |
| 20260902010046 | 87 | 211 | 5.0 | 10.0 | 0.00 | 0.00 | 0.00 | 12 | 1005.1 |
| 20260902005544 | 87 | 197 | 5.0 | 12.0 | 0.00 | 0.00 | 0.00 | 12 | 1005.1 |
| 20260902005044 | 87 | 252 | 5.0 | 11.0 | 0.00 | 0.00 | 0.00 | 12 | 1005.1 |
| 20260902004543 | 87 | 256 | 6.0 | 11.0 | 0.00 | 0.00 | 0.00 | 12 | 1005.1 |
| 20260902004042 | 88 | 191 | 5.0 | 12.0 | 0.00 | 0.00 | 0.00 | 12 | 1005.3 |
| 20260902003542 | 88 | 205 | 5.0 | 12.0 | 0.00 | 0.00 | 0.00 | 12 | 1005.2 |
| 20260902003042 | 88 | 217 | 8.0 | 13.0 | 0.00 | 0.00 | 0.00 | 12 | 1005.3 |
| 20260902002540 | 88 | 200 | 6.0 | 12.0 | 0.00 | 0.00 | 0.00 | 11 | 1005.3 |
| 20260902002041 | 88 | 251 | 6.0 | 15.0 | 0.00 | 0.00 | 0.00 | 11 | 1005.3 |
| 20260902001540 | 88 | 227 | 7.0 | 15.0 | 0.00 | 0.00 | 0.00 | 11 | 1005.2 |
| 20260902001039 | 88 | 175 | 6.0 | 14.0 | 0.00 | 0.00 | 0.00 | 11 | 1005.3 |
| 20260902000538 | 88 | 192 | 7.0 | 13.0 | 0.00 | 0.00 | 0.00 | 11 | 1005.3 |
| 20260902000038 | 88 | 236 | 6.0 | 12.0 | 0.00 | 0.00 | 0.00 | 11 | 1005.3 |
| 20260901235538 | 88 | 219 | 6.0 | 18.0 | 0.00 | 0.00 | 0.00 | 11 | 1005.4 |
| 20260901235037 | 88 | 198 | 8.0 | 18.0 | 0.00 | 0.00 | 0.00 | 11 | 1005.4 |
| 20260901234537 | 88 | 229 | 8.0 | 18.0 | 0.00 | 0.00 | 0.00 | 10 | 1005.4 |
| 20260901234037 | 89 | 195 | 7.0 | 14.0 | 0.00 | 0.00 | 0.00 | 10 | 1005.4 |
| 20260901233537 | 88 | 241 | 7.0 | 18.0 | 0.00 | 0.00 | 0.00 | 10 | 1005.4 |
| 20260901233037 | 88 | 224 | 7.0 | 22.0 | 0.00 | 0.00 | 0.00 | 10 | 1005.5 |
| 20260901232536 | 89 | 257 | 9.0 | 22.0 | 0.00 | 0.00 | 0.00 | 10 | 1005.5 |
| 20260901232035 | 88 | 205 | 9.0 | 15.0 | 0.00 | 0.00 | 0.00 | 10 | 1005.5 |
| 20260901231538 | 89 | 192 | 7.0 | 13.0 | 0.00 | 0.00 | 0.00 | 10 | 1005.6 |
| 20260901231035 | 89 | 222 | 7.0 | 15.0 | 0.00 | 0.00 | 0.00 | 10 | 1005.6 |
| 20260901230533 | 89 | 225 | 7.0 | 17.0 | 0.00 | 0.00 | 0.00 | 10 | 1005.6 |
| 20260901230033 | 89 | 246 | 8.0 | 17.0 | 0.00 | 0.00 | 0.00 | 9 | 1005.7 |
| 20260901225532 | 89 | 249 | 7.0 | 18.0 | 0.00 | 0.00 | 0.00 | 9 | 1005.7 |
| 20260901225034 | 89 | 275 | 8.0 | 18.0 | 0.00 | 0.00 | 0.00 | 8 | 1005.8 |
| 20260901224535 | 89 | 200 | 7.0 | 14.0 | 0.00 | 0.00 | 0.00 | 9 | 1005.7 |
| 20260901224031 | 89 | 253 | 6.0 | 14.0 | 0.00 | 0.00 | 0.00 | 9 | 1005.7 |
| 20260901223532 | 89 | 254 | 8.0 | 14.0 | 0.00 | 0.00 | 0.00 | 9 | 1005.9 |
| 20260901223032 | 89 | 192 | 8.0 | 13.0 | 0.00 | 0.00 | 0.00 | 9 | 1005.9 |
| 20260901222530 | 89 | 261 | 5.0 | 14.0 | 0.00 | 0.00 | 0.00 | 9 | 1006.0 |
| 20260901222036 | 89 | 203 | 7.0 | 14.0 | 0.00 | 0.00 | 0.00 | 10 | 1006.1 |
| 20260901221530 | 89 | 221 | 7.0 | 17.0 | 0.00 | 0.00 | 0.00 | 9 | 1006.0 |
| 20260901221030 | 88 | 208 | 8.0 | 17.0 | 0.00 | 0.00 | 0.00 | 10 | 1006.0 |
| 20260901220530 | 89 | 213 | 9.0 | 15.0 | 0.00 | 0.00 | 0.00 | 10 | 1006.1 |
| 20260901220029 | 89 | 214 | 7.0 | 16.0 | 0.00 | 0.00 | 0.00 | 10 | 1006.2 |
| 20260901215533 | 89 | 213 | 6.0 | 19.0 | 0.00 | 0.00 | 0.00 | 10 | 1006.1 |
| 20260901215029 | 89 | 263 | 10.0 | 19.0 | 0.00 | 0.00 | 0.00 | 10 | 1006.1 |
| 20260901214532 | 89 | 250 | 6.0 | 20.0 | 0.00 | 0.00 | 0.00 | 11 | 1006.1 |
| 20260901214028 | 89 | 192 | 8.0 | 20.0 | 0.00 | 0.00 | 0.00 | 9 | 1006.2 |
| 20260901213530 | 89 | 219 | 7.0 | 14.0 | 0.00 | 0.00 | 0.00 | 10 | 1006.3 |
| 20260901213031 | 89 | 213 | 7.0 | 16.0 | 0.00 | 0.00 | 0.00 | 10 | 1006.3 |
| 20260901212527 | 89 | 268 | 8.0 | 15.0 | 0.00 | 0.00 | 0.00 | 9 | 1006.3 |
| 20260901212027 | 89 | 207 | 8.0 | 15.0 | 0.00 | 0.00 | 0.00 | 9 | 1006.4 |
| 20260901211527 | 89 | 203 | 7.0 | 17.0 | 0.00 | 0.00 | 0.00 | 9 | 1006.4 |
| 20260901211028 | 89 | 204 | 8.0 | 22.0 | 0.00 | 0.00 | 0.00 | 9 | 1006.4 |
| 20260901210526 | 89 | 203 | 9.0 | 22.0 | 0.00 | 0.00 | 0.00 | 10 | 1006.5 |
| 20260901210026 | 89 | 234 | 9.0 | 18.0 | 0.00 | 0.00 | 0.00 | 10 | 1006.6 |
| 20260901205526 | 89 | 233 | 7.0 | 17.0 | 0.00 | 0.00 | 0.00 | 9 | 1006.7 |
| 20260901205025 | 89 | 187 | 8.0 | 17.0 | 0.00 | 0.00 | 0.00 | 9 | 1006.7 |
| 20260901204525 | 89 | 202 | 7.0 | 16.0 | 0.00 | 0.00 | 0.00 | 11 | 1006.7 |
| 20260901204025 | 89 | 204 | 7.0 | 17.0 | 0.00 | 0.00 | 0.00 | 11 | 1006.8 |
| 20260901203524 | 88 | 212 | 7.0 | 14.0 | 0.00 | 0.00 | 0.00 | 11 | 1006.8 |
| 20260901203023 | 88 | 228 | 5.0 | 14.0 | 0.00 | 0.00 | 0.00 | 11 | 1006.9 |
| 20260901202521 | 88 | 242 | 8.0 | 15.0 | 0.00 | 0.00 | 0.00 | 12 | 1007.0 |
| 20260901202023 | 88 | 209 | 7.0 | 15.0 | 0.00 | 0.00 | 0.00 | 13 | 1007.1 |
| 20260901201521 | 88 | 218 | 6.0 | 12.0 | 0.00 | 0.00 | 0.00 | 13 | 1007.2 |
| 20260901201020 | 87 | 210 | 7.0 | 14.0 | 0.00 | 0.00 | 0.00 | 13 | 1007.3 |
| 20260901200525 | 88 | 222 | 6.0 | 14.0 | 0.00 | 0.00 | 0.00 | 13 | 1007.3 |
| 20260901200021 | 87 | 219 | 6.0 | 13.0 | 0.00 | 0.00 | 0.00 | 13 | 1007.3 |
| 20260901195521 | 88 | 237 | 6.0 | 13.0 | 0.00 | 0.00 | 0.00 | 13 | 1007.4 |
| 20260901195021 | 88 | 239 | 6.0 | 14.0 | 0.00 | 0.00 | 0.00 | 13 | 1007.4 |
| 20260901194521 | 87 | 271 | 6.0 | 16.0 | 0.00 | 0.00 | 0.00 | 13 | 1007.5 |
| 20260901194023 | 87 | 217 | 7.0 | 17.0 | 0.00 | 0.00 | 0.00 | 13 | 1007.6 |
| 20260901193520 | 87 | 216 | 7.0 | 17.0 | 0.00 | 0.00 | 0.00 | 13 | 1007.6 |
| 20260901193019 | 87 | 235 | 7.0 | 16.0 | 0.00 | 0.00 | 0.00 | 13 | 1007.7 |
| 20260901192525 | 88 | 183 | 7.0 | 17.0 | 0.00 | 0.00 | 0.00 | 13 | 1007.8 |
| 20260901192017 | 87 | 260 | 6.0 | 13.0 | 0.00 | 0.00 | 0.00 | 13 | 1007.7 |
| 20260901191518 | 87 | 234 | 7.0 | 12.0 | 0.00 | 0.00 | 0.00 | 14 | 1007.8 |
| 20260901191016 | 87 | 221 | 7.0 | 13.0 | 0.00 | 0.00 | 0.00 | 14 | 1007.7 |
| 20260901190516 | 87 | 216 | 6.0 | 15.0 | 0.00 | 0.00 | 0.00 | 14 | 1007.7 |
| 20260901190023 | 87 | 242 | 6.0 | 17.0 | 0.00 | 0.00 | 0.00 | 15 | 1007.7 |
| 20260901185517 | 86 | 247 | 6.0 | 17.0 | 0.00 | 0.00 | 0.00 | 16 | 1007.7 |
| 20260901185015 | 87 | 256 | 9.0 | 17.0 | 0.00 | 0.00 | 0.00 | 15 | 1007.8 |
| 20260901184515 | 87 | 209 | 8.0 | 12.0 | 0.00 | 0.00 | 0.00 | 15 | 1007.8 |
| 20260901184015 | 87 | 258 | 7.0 | 14.0 | 0.00 | 0.00 | 0.00 | 15 | 1007.8 |
| 20260901183515 | 87 | 237 | 6.0 | 14.0 | 0.00 | 0.00 | 0.00 | 15 | 1007.9 |
| 20260901183023 | 86 | 246 | 5.0 | 12.0 | 0.00 | 0.00 | 0.00 | 15 | 1007.9 |
| 20260901182513 | 87 | 248 | 5.0 | 18.0 | 0.00 | 0.00 | 0.00 | 15 | 1008.0 |
| 20260901182013 | 87 | 205 | 6.0 | 18.0 | 0.00 | 0.00 | 0.00 | 15 | 1008.0 |
| 20260901181514 | 87 | 203 | 4.0 | 12.0 | 0.00 | 0.00 | 0.00 | 17 | 1008.0 |
| 20260901181012 | 87 | 183 | 5.0 | 10.0 | 0.00 | 0.00 | 0.00 | 17 | 1008.0 |
| 20260901180511 | 86 | 205 | 5.0 | 17.0 | 0.00 | 0.00 | 0.00 | 16 | 1008.1 |
| 20260901180015 | 85 | 190 | 6.0 | 16.0 | 0.00 | 0.00 | 0.00 | 18 | 1008.1 |
| 20260901175510 | 85 | 194 | 10.0 | 15.0 | 0.00 | 0.00 | 0.00 | 18 | 1008.0 |
| 20260901175009 | 86 | 185 | 6.0 | 13.0 | 0.00 | 0.00 | 0.00 | 19 | 1008.0 |
| 20260901174510 | 86 | 233 | 8.0 | 13.0 | 0.00 | 0.00 | 0.00 | 18 | 1008.0 |
| 20260901174010 | 86 | 209 | 7.0 | 12.0 | 0.00 | 0.00 | 0.00 | 16 | 1008.0 |
| 20260901173507 | 86 | 209 | 4.0 | 12.0 | 0.00 | 0.00 | 0.00 | 15 | 1008.0 |
| 20260901173007 | 85 | 265 | 5.0 | 12.0 | 0.00 | 0.00 | 0.00 | 16 | 1008.0 |
| 20260901172504 | 85 | 211 | 3.0 | 12.0 | 0.00 | 0.00 | 0.00 | 18 | 1008.0 |
| 20260901172004 | 84 | 185 | 6.0 | 13.0 | 0.00 | 0.00 | 0.00 | 18 | 1008.1 |
| 20260901171506 | 84 | 136 | 5.0 | 14.0 | 0.00 | 0.00 | 0.00 | 18 | 1008.1 |
| 20260901171003 | 83 | 174 | 4.0 | 14.0 | 0.00 | 0.00 | 0.00 | 19 | 1008.0 |
| 20260901170502 | 83 | 156 | 4.0 | 12.0 | 0.00 | 0.00 | 0.00 | 18 | 1008.1 |
| 20260901170002 | 83 | 134 | 6.0 | 13.0 | 0.00 | 0.00 | 0.00 | 17 | 1008.1 |
| 20260901165501 | 83 | 132 | 5.0 | 13.0 | 0.00 | 0.00 | 0.00 | 16 | 1008.1 |
| 20260901165003 | 83 | 155 | 6.0 | 11.0 | 0.00 | 0.00 | 0.00 | 16 | 1008.1 |
| 20260901164603 | 83 | 155 | 7.0 | 11.0 | 0.00 | 0.00 | 0.00 | 15 | 1008.1 |
| 20260901164059 | 83 | 135 | 4.0 | 10.0 | 0.00 | 0.00 | 0.00 | 15 | 1008.0 |
| 20260901163559 | 83 | 166 | 4.0 | 10.0 | 0.00 | 0.00 | 0.00 | 15 | 1008.1 |
| 20260901163116 | 83 | 148 | 4.0 | 11.0 | 0.00 | 0.00 | 0.00 | 15 | 1008.1 |
| 20260901162557 | 82 | 73 | 4.0 | 11.0 | 0.00 | 0.00 | 0.00 | 15 | 1008.1 |
| 20260901162057 | 82 | 139 | 6.0 | 10.0 | 0.00 | 0.00 | 0.00 | 15 | 1008.1 |
| 20260901161606 | 82 | 171 | 5.0 | 10.0 | 0.00 | 0.00 | 0.00 | 14 | 1008.1 |
| 20260901161056 | 81 | 151 | 3.0 | 11.0 | 0.00 | 0.00 | 0.00 | 15 | 1008.1 |
| 20260901160557 | 81 | 141 | 5.0 | 11.0 | 0.00 | 0.00 | 0.00 | 14 | 1008.2 |
| 20260901160057 | 81 | 137 | 6.0 | 10.0 | 0.00 | 0.00 | 0.00 | 15 | 1008.2 |
| 20260901155559 | 81 | 159 | 5.0 | 9.0 | 0.00 | 0.00 | 0.00 | 15 | 1008.2 |
| 20260901155058 | 81 | 150 | 4.0 | 9.0 | 0.00 | 0.00 | 0.00 | 15 | 1008.2 |
| 20260901154556 | 80 | 131 | 5.0 | 11.0 | 0.00 | 0.00 | 0.00 | 15 | 1008.2 |
| 20260901154058 | 80 | 150 | 6.0 | 11.0 | 0.00 | 0.00 | 0.00 | 15 | 1008.1 |
| 20260901153556 | 80 | 137 | 2.0 | 7.0 | 0.00 | 0.00 | 0.00 | 16 | 1008.2 |
| 20260901153056 | 80 | 146 | 2.0 | 8.0 | 0.00 | 0.00 | 0.00 | 16 | 1008.2 |
| 20260901152554 | 79 | 140 | 2.0 | 8.0 | 0.00 | 0.00 | 0.00 | 16 | 1008.1 |
| 20260901152054 | 79 | 140 | 3.0 | 8.0 | 0.00 | 0.00 | 0.00 | 16 | 1008.1 |
| 20260901151558 | 78 | 140 | 5.0 | 9.0 | 0.00 | 0.00 | 0.00 | 16 | 1008.1 |
| 20260901151054 | 78 | 140 | 4.0 | 8.0 | 0.00 | 0.00 | 0.00 | 16 | 1008.1 |
| 20260901150554 | 78 | 149 | 3.0 | 8.0 | 0.00 | 0.00 | 0.00 | 16 | 1008.1 |
| 20260901150055 | 78 | 132 | 3.0 | 8.0 | 0.00 | 0.00 | 0.00 | 16 | 1008.1 |
| 20260901145553 | 78 | 142 | 3.0 | 9.0 | 0.00 | 0.00 | 0.00 | 16 | 1008.0 |
| 20260901145053 | 78 | 158 | 4.0 | 9.0 | 0.00 | 0.00 | 0.00 | 16 | 1008.0 |
| 20260901144552 | 79 | 133 | 3.0 | 9.0 | 0.00 | 0.00 | 0.00 | 15 | 1008.0 |
| 20260901144053 | 79 | 197 | 2.0 | 6.0 | 0.00 | 0.00 | 0.00 | 15 | 1007.9 |
| 20260901143551 | 78 | 196 | 3.0 | 6.0 | 0.00 | 0.00 | 0.00 | 15 | 1007.8 |
| 20260901143058 | 78 | 198 | 2.0 | 6.0 | 0.00 | 0.00 | 0.00 | 15 | 1007.7 |
| 20260901142549 | 78 | 211 | 2.0 | 8.0 | 0.00 | 0.00 | 0.00 | 15 | 1007.6 |
| 20260901142048 | 78 | 215 | 2.0 | 8.0 | 0.00 | 0.00 | 0.00 | 15 | 1007.6 |
| 20260901141548 | 77 | 227 | 3.0 | 7.0 | 0.00 | 0.00 | 0.00 | 15 | 1007.6 |
| 20260901141049 | 77 | 217 | 3.0 | 8.0 | 0.00 | 0.00 | 0.00 | 15 | 1007.5 |
| 20260901140549 | 77 | 223 | 3.0 | 8.0 | 0.00 | 0.00 | 0.00 | 15 | 1007.5 |
| 20260901140047 | 76 | 237 | 3.0 | 6.0 | 0.00 | 0.00 | 0.00 | 15 | 1007.5 |
| 20260901135547 | 75 | 200 | 2.0 | 4.0 | 0.00 | 0.00 | 0.00 | 16 | 1007.5 |
| 20260901135047 | 75 | 162 | 0.0 | 3.0 | 0.00 | 0.00 | 0.00 | 16 | 1007.5 |
| 20260901134547 | 74 | 162 | 0.0 | 4.0 | 0.00 | 0.00 | 0.00 | 16 | 1007.4 |
| 20260901134046 | 74 | 152 | 0.0 | 3.0 | 0.00 | 0.00 | 0.00 | 16 | 1007.4 |
| 20260901133547 | 74 | 150 | 0.0 | 4.0 | 0.00 | 0.00 | 0.00 | 16 | 1007.4 |
| 20260901133048 | 73 | 242 | 1.0 | 4.0 | 0.00 | 0.00 | 0.00 | 16 | 1007.3 |
| 20260901132545 | 73 | 242 | 1.0 | 4.0 | 0.00 | 0.00 | 0.00 | 17 | 1007.4 |
| 20260901132045 | 73 | 243 | 2.0 | 4.0 | 0.00 | 0.00 | 0.00 | 17 | 1007.5 |
| 20260901131547 | 73 | 243 | 1.0 | 3.0 | 0.00 | 0.00 | 0.00 | 16 | 1007.4 |
| 20260901131047 | 73 | 243 | 1.0 | 4.0 | 0.00 | 0.00 | 0.00 | 16 | 1007.4 |
| 20260901130543 | 74 | 243 | 2.0 | 4.0 | 0.00 | 0.00 | 0.00 | 16 | 1007.4 |
| 20260901130041 | 74 | 248 | 2.0 | 4.0 | 0.00 | 0.00 | 0.00 | 16 | 1007.3 |
| 20260901125541 | 74 | 249 | 1.0 | 4.0 | 0.00 | 0.00 | 0.00 | 16 | 1007.2 |
| 20260901125040 | 74 | 250 | 1.0 | 5.0 | 0.00 | 0.00 | 0.00 | 15 | 1007.1 |
| 20260901124540 | 74 | 250 | 2.0 | 5.0 | 0.00 | 0.00 | 0.00 | 15 | 1007.1 |
| 20260901124041 | 75 | 252 | 2.0 | 5.0 | 0.00 | 0.00 | 0.00 | 15 | 1007.0 |
| 20260901123539 | 75 | 254 | 1.0 | 5.0 | 0.00 | 0.00 | 0.00 | 15 | 1007.0 |
| 20260901123041 | 75 | 255 | 2.0 | 7.0 | 0.00 | 0.00 | 0.00 | 15 | 1007.0 |
| 20260901122538 | 75 | 257 | 2.0 | 7.0 | 0.00 | 0.00 | 0.00 | 15 | 1007.0 |
| 20260901122039 | 75 | 261 | 2.0 | 6.0 | 0.00 | 0.00 | 0.00 | 15 | 1007.0 |
| 20260901121540 | 75 | 262 | 1.0 | 3.0 | 0.00 | 0.00 | 0.00 | 14 | 1007.0 |
| 20260901121037 | 75 | 262 | 1.0 | 3.0 | 0.00 | 0.00 | 0.00 | 14 | 1006.9 |
| 20260901120538 | 75 | 262 | 1.0 | 4.0 | 0.00 | 0.00 | 0.00 | 14 | 1006.9 |
| 20260901120036 | 75 | 262 | 1.0 | 8.0 | 0.00 | 0.00 | 0.00 | 14 | 1006.9 |
| 20260901115535 | 75 | 262 | 2.0 | 8.0 | 0.00 | 0.00 | 0.00 | 14 | 1006.8 |
| 20260901115035 | 75 | 245 | 1.0 | 5.0 | 0.00 | 0.00 | 0.00 | 14 | 1006.8 |
| 20260901114534 | 76 | 244 | 1.0 | 5.0 | 0.00 | 0.00 | 0.00 | 14 | 1006.9 |
| 20260901114032 | 76 | 240 | 1.0 | 5.0 | 0.00 | 0.00 | 0.00 | 13 | 1006.9 |
| 20260901113533 | 76 | 238 | 1.0 | 6.0 | 0.00 | 0.00 | 0.00 | 13 | 1006.9 |
| 20260901113033 | 77 | 234 | 2.0 | 6.0 | 0.00 | 0.00 | 0.00 | 13 | 1006.9 |
| 20260901112532 | 77 | 227 | 3.0 | 5.0 | 0.00 | 0.00 | 0.00 | 13 | 1006.9 |
| 20260901112033 | 77 | 227 | 2.0 | 7.0 | 0.00 | 0.00 | 0.00 | 13 | 1006.9 |
| 20260901111529 | 77 | 224 | 2.0 | 7.0 | 0.00 | 0.00 | 0.00 | 13 | 1006.8 |
| 20260901111028 | 77 | 231 | 3.0 | 7.0 | 0.00 | 0.00 | 0.00 | 13 | 1006.8 |